Location: Mapua
(41.2500°S, 173.1000°E)
Time: 07:35:50
(UTC+12:00)

Tiangong 1 - Visible Passes

Search period start: 25 May 2017 00:00
Search period end: 04 June 2017 00:00
Orbit: 323 x 350 km, 42.8° (Epoch: 24 May)

Date Brightness Start Highest point End Pass type
(mag) Time Alt. Az. Time Alt. Az. Time Alt. Az.
31 May 3.5 18:27:45 10° NNE 18:28:22 10° NE 18:28:25 10° NE visible
01 Jun 2.6 18:46:00 10° NNW 18:48:00 23° NNE 18:48:00 23° NNE visible
02 Jun 2.6 19:05:44 10° WNW 19:07:27 30° NW 19:07:27 30° NW visible
03 Jun 2.5 17:50:52 10° NNW 17:53:19 24° NNE 17:55:36 11° E visible
03 Jun 3.8 19:25:51 10° WNW 19:26:49 19° W 19:26:49 19° W visible
